Showing default

GEOS 2, 10981

Orbit data source: Space-Track

GEOS 2, 10981 is a payload satellite owned by ESA (ESA) in GEO that was launched on Fri, 14 Jul 1978 UTC via a DELTA 2914 launch vehicle from the Air Force Eastern Test Range (AFETR). Payload-class satellites include a variety of spacecraft equipped with specific instruments for various scientific and technological missions. These include communications satellites like Starlink; space stations such as the ISS; scientific satellites like the Hubble; Earth observation satellites from companies like Planet Labs, Umbra, and HawkEye 360; GPS; miniature CubeSats for education and research; and military/defense satellites.

Not visible in the next 10 days
Identifier
10981, 1978-071A
Orbit
GEO
Country
Flag of ESAESA
Related business
Manufacturer
BAE Filton
Mission
Non-operational spacecraft
Bus & Motor
ESA GEOS, SNIA-BPD
Mass
575 kg wet, 240 kg dry
Launch date (UTC)
1978-07-14 (48 years ago)
Launch vehicle
DELTA 2914
Launch site
Air Force Eastern Test Range (AFETR)
Object type
Payload
Rocket body
Debris
Shape & HBR
Unknown
Radar Cross Section
Large (>1 m²)

Expand to show TLE details & history
Last TLE update: 1 day ago

TLE from 1 day ago
0 GEOS 2
1 10981U 78071A   26173.62364294 -.00000184  00000-0  00000-0 0  9991
2 10981   5.5568 286.4774 0004279   8.3782  10.6573  0.99382640174058
Epoch: 2026-06-22T14:58Z
TLE epoch observation values (Epoch: 2026-06-22T14:58:02.750Z)
Latitude
1.80177°
Longitude
170.11692°
Altitude
36,019.136 km
Speed
3.067 km/s
True Right ascension
20h 21m 44s
True Declination
1° 47' 60"
Sunlit
Object was in daylight at epoch
Visualization orbit readout
Latitude
Unknown
Longitude
Unknown
Altitude
Unknown
Speed
Unknown
Apparent Right ascension
Unknown
Apparent Declination
Unknown
Sunlit
N/A
Visualization observer readout
Local Sidereal Time
11:59:58
Azimuth
Unknown
Elevation
Unknown
Doppler factor
Unknown
Orbital elements
Apogee altitude
36,056.911 km
Perigee altitude
36,020.611 km
Semi-major axis
42,416.898 km
Eccentricity
0.00043
Inclination
5.5568°
RAAN
286.4774°
Arg. of periapsis
8.3782°
True anomaly
10.66637°
Mean anomaly
10.6573°
Eccentric anomaly
10.66184°
Mean motion
0.24845 °/min
Orbital period
1,449 mins
BSTAR
0
Loading maneuver chart data...
Computing Atmospheric mass density...
Loading historical data...
Loading historical data...
Loading historical data...
Loading historical data...
Loading historical data...
Loading historical data...
Loading historical data...
Other satellites on launch #71 in the year 1978 (1978-07-14 UTC)

Documentation

Showing up to 5 results
|